TimeEDT,TemperatureF,Dew PointF,Humidity,Sea Level PressureIn,VisibilityMPH,Wind Direction,Wind SpeedMPH,Gust SpeedMPH,PrecipitationIn,Events,Conditions,WindDirDegrees,DateUTC
12:11 AM,42.8,42.8,100,29.97,10.0,SW,5.8,-,N/A,,Overcast,230,2012-10-06 04:11:00
12:31 AM,42.8,42.8,100,29.97,10.0,WSW,6.9,-,N/A,,Overcast,240,2012-10-06 04:31:00
12:51 AM,42.8,42.8,100,29.96,10.0,WSW,3.5,-,N/A,,Overcast,240,2012-10-06 04:51:00
1:12 AM,42.8,42.8,100,29.96,10.0,WSW,6.9,-,N/A,,Overcast,240,2012-10-06 05:12:00
1:32 AM,44.6,42.8,93,29.95,10.0,WSW,9.2,-,N/A,,Overcast,240,2012-10-06 05:32:00
1:52 AM,44.6,42.8,93,29.95,10.0,WSW,9.2,-,N/A,,Overcast,250,2012-10-06 05:52:00
2:12 AM,42.8,41.0,93,29.96,7.0,WSW,9.2,-,N/A,,Scattered Clouds,250,2012-10-06 06:12:00
2:52 AM,42.8,41.0,93,29.96,7.0,WSW,9.2,-,N/A,,Clear,240,2012-10-06 06:52:00
3:12 AM,41.0,39.2,93,29.96,7.0,WSW,5.8,-,N/A,,Clear,240,2012-10-06 07:12:00
3:32 AM,41.0,39.2,93,29.96,7.0,WSW,8.1,-,N/A,,Clear,250,2012-10-06 07:32:00
3:52 AM,41.0,39.2,93,29.95,7.0,WSW,8.1,-,N/A,,Clear,240,2012-10-06 07:52:00
4:13 AM,39.2,39.2,100,29.95,7.0,WSW,6.9,-,N/A,,Clear,250,2012-10-06 08:13:00
4:33 AM,39.2,39.2,100,29.95,7.0,WSW,5.8,-,N/A,,Clear,250,2012-10-06 08:33:00
4:53 AM,39.2,37.4,93,29.95,7.0,WSW,5.8,-,N/A,,Clear,250,2012-10-06 08:53:00
5:33 AM,39.2,37.4,93,29.96,7.0,WSW,6.9,-,N/A,,Clear,240,2012-10-06 09:33:00
5:53 AM,37.4,37.4,100,29.96,7.0,WSW,5.8,-,N/A,,Clear,250,2012-10-06 09:53:00
6:13 AM,37.4,37.4,100,29.96,7.0,WSW,5.8,-,N/A,,Clear,240,2012-10-06 10:13:00
6:33 AM,37.4,37.4,100,29.96,7.0,WSW,6.9,-,N/A,,Clear,250,2012-10-06 10:33:00
6:53 AM,37.4,37.4,100,29.96,7.0,WSW,5.8,-,N/A,,Clear,240,2012-10-06 10:53:00
7:13 AM,37.4,37.4,100,29.97,7.0,WSW,4.6,-,N/A,,Clear,240,2012-10-06 11:13:00
7:54 AM,37.4,37.4,100,29.98,7.0,WSW,6.9,-,N/A,,Scattered Clouds,240,2012-10-06 11:54:00
8:14 AM,37.4,37.4,100,29.99,7.0,WSW,6.9,-,N/A,,Mostly Cloudy,250,2012-10-06 12:14:00
8:34 AM,39.2,37.4,93,30.00,10.0,West,9.2,-,N/A,,Mostly Cloudy,260,2012-10-06 12:34:00
8:54 AM,39.2,37.4,93,30.01,10.0,West,6.9,-,N/A,,Overcast,270,2012-10-06 12:54:00
9:14 AM,41.0,37.4,87,30.01,10.0,West,6.9,-,N/A,,Mostly Cloudy,260,2012-10-06 13:14:00
9:34 AM,42.8,39.2,87,30.02,10.0,West,11.5,-,N/A,,Mostly Cloudy,260,2012-10-06 13:34:00
9:54 AM,42.8,39.2,87,30.03,10.0,West,12.7,-,N/A,,Overcast,270,2012-10-06 13:54:00
10:14 AM,44.6,39.2,81,30.03,10.0,West,12.7,-,N/A,,Overcast,270,2012-10-06 14:14:00
10:35 AM,46.4,39.2,76,30.02,10.0,West,11.5,18.4,N/A,,Mostly Cloudy,270,2012-10-06 14:35:00
10:55 AM,46.4,39.2,76,30.03,10.0,West,12.7,18.4,N/A,,Scattered Clouds,270,2012-10-06 14:55:00
11:15 AM,48.2,37.4,66,30.02,10.0,West,15.0,18.4,N/A,,Scattered Clouds,280,2012-10-06 15:15:00
11:35 AM,46.4,37.4,71,30.03,10.0,West,11.5,21.9,N/A,,Overcast,280,2012-10-06 15:35:00
11:55 AM,48.2,37.4,66,30.03,10.0,West,12.7,18.4,N/A,,Overcast,260,2012-10-06 15:55:00
12:15 PM,46.4,33.8,62,30.03,10.0,West,15.0,20.7,N/A,,Overcast,280,2012-10-06 16:15:00
12:35 PM,48.2,33.8,58,30.03,10.0,WNW,15.0,19.6,N/A,,Overcast,300,2012-10-06 16:35:00
12:55 PM,48.2,35.6,62,30.03,10.0,West,11.5,18.4,N/A,,Overcast,280,2012-10-06 16:55:00
1:15 PM,48.2,33.8,58,30.03,10.0,West,15.0,-,N/A,,Overcast,280,2012-10-06 17:15:00
1:36 PM,48.2,33.8,58,30.03,10.0,West,12.7,17.3,N/A,,Overcast,280,2012-10-06 17:36:00
1:56 PM,48.2,35.6,62,30.03,10.0,WSW,13.8,18.4,N/A,,Overcast,250,2012-10-06 17:56:00
2:16 PM,50.0,33.8,54,30.03,10.0,West,17.3,-,N/A,,Overcast,270,2012-10-06 18:16:00
2:31 PM,50.0,33.8,54,30.03,10.0,West,18.4,21.9,N/A,,Overcast,270,2012-10-06 18:31:00
2:51 PM,48.2,33.8,58,30.03,10.0,WNW,12.7,18.4,N/A,,Overcast,300,2012-10-06 18:51:00
3:11 PM,48.2,33.8,58,30.04,10.0,WNW,16.1,19.6,N/A,,Overcast,290,2012-10-06 19:11:00
3:31 PM,48.2,33.8,58,30.04,10.0,West,11.5,21.9,N/A,,Overcast,280,2012-10-06 19:31:00
3:51 PM,50.0,32.0,50,30.04,10.0,WNW,15.0,-,N/A,,Overcast,300,2012-10-06 19:51:00
4:11 PM,48.2,33.8,58,30.04,10.0,West,9.2,16.1,N/A,,Overcast,280,2012-10-06 20:11:00
4:31 PM,48.2,33.8,58,30.04,10.0,West,10.4,-,N/A,,Overcast,280,2012-10-06 20:31:00
4:52 PM,48.2,33.8,58,30.04,10.0,West,12.7,16.1,N/A,,Overcast,260,2012-10-06 20:52:00
5:12 PM,48.2,33.8,58,30.04,10.0,West,10.4,-,N/A,,Overcast,280,2012-10-06 21:12:00
5:32 PM,48.2,33.8,58,30.05,10.0,West,10.4,-,N/A,,Overcast,270,2012-10-06 21:32:00
5:52 PM,46.4,33.8,62,30.05,10.0,West,8.1,-,N/A,,Overcast,280,2012-10-06 21:52:00
6:12 PM,46.4,35.6,66,30.07,10.0,West,9.2,-,N/A,,Overcast,280,2012-10-06 22:12:00
6:32 PM,46.4,35.6,66,30.07,10.0,WNW,6.9,-,N/A,,Overcast,290,2012-10-06 22:32:00
7:12 PM,46.4,37.4,71,30.08,10.0,WNW,5.8,-,N/A,,Overcast,290,2012-10-06 23:12:00
7:32 PM,46.4,37.4,71,30.08,10.0,WNW,4.6,-,N/A,,Overcast,300,2012-10-06 23:32:00
7:52 PM,46.4,37.4,71,30.09,10.0,West,5.8,-,N/A,,Overcast,280,2012-10-06 23:52:00
8:13 PM,46.4,37.4,71,30.09,10.0,West,10.4,-,N/A,,Overcast,270,2012-10-07 00:13:00
8:33 PM,44.6,37.4,76,30.10,10.0,West,6.9,-,N/A,,Overcast,260,2012-10-07 00:33:00
8:53 PM,44.6,37.4,76,30.10,10.0,WSW,5.8,-,N/A,,Overcast,250,2012-10-07 00:53:00
9:13 PM,44.6,37.4,76,30.10,10.0,WSW,3.5,-,N/A,,Overcast,250,2012-10-07 01:13:00
9:33 PM,44.6,39.2,81,30.10,10.0,WSW,5.8,-,N/A,,Overcast,240,2012-10-07 01:33:00
9:53 PM,42.8,37.4,81,30.10,10.0,WSW,6.9,-,N/A,,Overcast,250,2012-10-07 01:53:00
10:13 PM,42.8,37.4,81,30.11,10.0,West,6.9,-,N/A,,Overcast,270,2012-10-07 02:13:00
10:33 PM,42.8,37.4,81,30.11,10.0,West,5.8,-,N/A,,Overcast,270,2012-10-07 02:33:00
10:53 PM,42.8,37.4,81,30.11,10.0,West,5.8,-,N/A,,Overcast,260,2012-10-07 02:53:00
11:13 PM,42.8,37.4,81,30.11,10.0,West,6.9,-,N/A,,Overcast,270,2012-10-07 03:13:00
11:34 PM,42.8,37.4,81,30.11,10.0,West,5.8,-,N/A,,Overcast,270,2012-10-07 03:34:00
11:54 PM,42.8,37.4,81,30.11,10.0,West,6.9,-,N/A,,Overcast,270,2012-10-07 03:54:00